Terminal Aerodrome Forecast
Issued by NWS

Home | Current Version | Previous Version | Text Only | Print | Product List | Glossary On
Versions: 1 2 3 4 5 6 7 8 9 10 11 12 13 14 15 16 17
015
FTUS46 KMTR 232320
TAFOAK
TAF
KOAK 232320Z 2400/2506 29014KT P6SM FEW020
     FM240400 31006KT P6SM FEW020 FEW120
     FM240900 02006KT P6SM FEW120
     FM241500 05004KT P6SM SKC
     FM241900 28009KT P6SM BKN100=

USA.gov is the U.S. government's official web portal to all federal, state and local government web resources and services.